"Pseudo-MPEC" for P112XIw

Created 2020 Aug 10 11:07:09 UT using Find_Orb

Click here for an explanation of pseudo-MPECs

 
 Astrometry: 
     P112XIw  C2020 07 21mP@@eAstrometryK8BR(@c_F4[l=^7_L5_1AKqrgredacted;09-F51
     P112XIw  C2020 07 21Pdyrp[lY@8G!^d9v#fe^P]dG=\5(OvXmvclick*cWherevvR5w-sF51
     P112XIw  C2020 07 21;!forIghexplanation5%LC@jUr/Q*#'4f90=ky:xMVyvN@?=]jCF51

Station data:
(F51) Pan-STARRS 1, Haleakala  (N20.707235 W156.255910)  US/Hawaii.
   Observers N. Primak, A. Schultz, S. Watters, J. Thiel, T. Goggia. Measurer
   PS1 Science Consortium. 1.8-m Ritchey-Chrétien + CCD.

Orbital elements:  P112XIw
   Perihelion 2022 May 22.069898 +/- 362 TT =  1:40:39 (JD 2459721.569898)
Epoch 2020 Jul 21.0 TT = JDT 2459051.5   Earth MOID: 0.6990   AutoNEOCP
M 201.98235072 +/- 110              (J2000 ecliptic)
n   0.23582263 +/- 0.406            Peri.  232.91769 +/- 60
a   2.59465163 +/- 2.98             Node   175.30380 +/- 54
e   0.3892267 +/- 0.203             Incl.   31.78104 +/- 28
P   4.18                   H 16.6   G  0.15   U 12.1  SR
q 1.58474386 +/- 1.65    Q 3.60455940 +/- 53.5
From 3 observations 2020 July 21 (34.1 min); mean residual 0".09
Residuals in arcseconds: 
200721 F51  .09-  .02-    200721 F51  .18+  .05+    200721 F51  .09-  .02-    

Ephemerides (geocentric):
Date (UTC) HH   RA              Dec         delta   r     elong  mag " sig PA
---- -- -- --  -------------   -----------  ------ ------ -----  --- ---- ---
2020 08 10 11  15 01 45.924   +12 52 48.78  3.5454 3.5472  81.9 23.0 2398  40
2020 08 10 12  15 01 47.052   +12 52 29.85  3.5458 3.5472  81.9 23.0 2407  40
2020 08 10 13  15 01 48.182   +12 52 10.92  3.5463 3.5472  81.8 23.0 2416  40
2020 08 10 14  15 01 49.314   +12 51 51.99  3.5468 3.5471  81.8 23.0 2425  40
2020 08 10 15  15 01 50.446   +12 51 33.06  3.5473 3.5471  81.8 23.0 2433  40
2020 08 10 16  15 01 51.581   +12 51 14.12  3.5478 3.5470  81.7 23.0 2442  40
2020 08 10 17  15 01 52.717   +12 50 55.19  3.5483 3.5470  81.7 23.0 2451  40
2020 08 10 18  15 01 53.854   +12 50 36.25  3.5488 3.5469  81.7 23.0 2460  40
2020 08 10 19  15 01 54.993   +12 50 17.31  3.5493 3.5469  81.7 23.0 2469  40
2020 08 10 20  15 01 56.133   +12 49 58.36  3.5498 3.5469  81.6 23.0 2478  40
2020 08 10 21  15 01 57.275   +12 49 39.42  3.5503 3.5468  81.6 23.0 2487  40
2020 08 10 22  15 01 58.418   +12 49 20.47  3.5507 3.5468  81.6 23.0 2496  40
2020 08 10 23  15 01 59.563   +12 49 01.52  3.5512 3.5467  81.5 23.0 2505  40
2020 08 11 00  15 02 00.710   +12 48 42.57  3.5517 3.5467  81.5 23.0 2514  40
2020 08 11 01  15 02 01.857   +12 48 23.62  3.5522 3.5467  81.5 23.0 2523  40
2020 08 11 02  15 02 03.007   +12 48 04.67  3.5527 3.5466  81.5 23.0 2532  40
2020 08 11 03  15 02 04.158   +12 47 45.71  3.5532 3.5466  81.4 23.0 2541  40
2020 08 11 04  15 02 05.310   +12 47 26.75  3.5537 3.5465  81.4 23.0 2550  40
2020 08 11 05  15 02 06.464   +12 47 07.79  3.5542 3.5465  81.4 23.0 2559  40
2020 08 11 06  15 02 07.619   +12 46 48.83  3.5547 3.5464  81.3 23.0 2569  40
2020 08 11 07  15 02 08.776   +12 46 29.87  3.5551 3.5464  81.3 23.0 2578  40
2020 08 11 08  15 02 09.934   +12 46 10.91  3.5556 3.5464  81.3 23.0 2587  40
2020 08 11 09  15 02 11.094   +12 45 51.94  3.5561 3.5463  81.2 23.0 2596  40
2020 08 11 10  15 02 12.255   +12 45 32.97  3.5566 3.5463  81.2 23.0 2605  40
2020 08 11 11  15 02 13.418   +12 45 14.00  3.5571 3.5462  81.2 23.0 2614  40
2020 08 11 12  15 02 14.582   +12 44 55.03  3.5576 3.5462  81.2 23.0 2624  40
2020 08 11 13  15 02 15.748   +12 44 36.05  3.5581 3.5461  81.1 23.0 2633  40
2020 08 11 14  15 02 16.915   +12 44 17.08  3.5586 3.5461  81.1 23.0 2642  40
2020 08 11 15  15 02 18.084   +12 43 58.10  3.5591 3.5461  81.1 23.0 2651  40
2020 08 11 16  15 02 19.254   +12 43 39.12  3.5595 3.5460  81.0 23.0 2661  40
2020 08 11 17  15 02 20.426   +12 43 20.14  3.5600 3.5460  81.0 23.0 2670  40
2020 08 11 18  15 02 21.599   +12 43 01.16  3.5605 3.5459  81.0 23.0 2679  40
2020 08 11 19  15 02 22.774   +12 42 42.18  3.5610 3.5459  81.0 23.0 2689  40
2020 08 11 20  15 02 23.950   +12 42 23.19  3.5615 3.5458  80.9 23.0 2698  40
2020 08 11 21  15 02 25.128   +12 42 04.20  3.5620 3.5458  80.9 23.0 2707  40
2020 08 11 22  15 02 26.307   +12 41 45.21  3.5625 3.5458  80.9 23.0 2717  40
2020 08 11 23  15 02 27.488   +12 41 26.22  3.5630 3.5457  80.8 23.0 2726  40
2020 08 12 00  15 02 28.670   +12 41 07.23  3.5635 3.5457  80.8 23.0 2736  40
2020 08 12 01  15 02 29.853   +12 40 48.23  3.5639 3.5456  80.8 23.0 2745  40
2020 08 12 02  15 02 31.039   +12 40 29.24  3.5644 3.5456  80.8 23.0 2755  40
2020 08 12 03  15 02 32.225   +12 40 10.24  3.5649 3.5455  80.7 23.0 2764  40
2020 08 12 04  15 02 33.413   +12 39 51.24  3.5654 3.5455  80.7 23.0 2774  40
2020 08 12 05  15 02 34.603   +12 39 32.24  3.5659 3.5455  80.7 23.0 2783  40
2020 08 12 06  15 02 35.794   +12 39 13.24  3.5664 3.5454  80.6 23.0 2793  40
2020 08 12 07  15 02 36.986   +12 38 54.23  3.5669 3.5454  80.6 23.0 2802  40
2020 08 12 08  15 02 38.180   +12 38 35.23  3.5674 3.5453  80.6 23.0 2812  40
2020 08 12 09  15 02 39.376   +12 38 16.22  3.5678 3.5453  80.5 23.0 2822  40
2020 08 12 10  15 02 40.573   +12 37 57.21  3.5683 3.5452  80.5 23.0 2831  40